QPF
0.00 0.00 0.00 0.00 0.00 0.00 0.00 0.00 0.00 0.00 0.00 0.00 0.00 0.00 0.00 0.00 0.00 0.00 0.00 0.00 0.00 0.00 0.00 0.00 0.00 0.00 0.00 0.00 0.00 0.00 0.00 0.00 0.00 0.00 0.00 0.00 0.00 0.00 0.00 0.00 0.00 0.00 0.00 0.00 0.00
0.00 0.00 0.00 0.00 0.00 0.00 0.00 0.00 0.00 0.00 0.00 0.00 0.00 0.00 0.00 0.00 0.00 0.00 0.00 0.00 0.00 0.00 0.00 0.00 0.00 0.00 0.00 0.00 0.00 0.00 0.00 0.00 0.00 0.00 0.00 0.00 0.00 0.00 0.00 0.00 0.00 0.00 0.00 0.00 0.00
0.00 0.00 0.00 0.00 0.00 0.00 0.00 0.00 0.00 0.00 0.00 0.00 0.00 0.00 0.00 0.00 0.00 0.00 0.00 0.00 0.00 0.00 0.00 0.00 0.00 0.00 0.00 0.00 0.00 0.00 0.00 0.00 0.00 0.00 0.00 0.00 0.00 0.00 0.00 0.00 0.00 0.00 0.00 0.00 0.00
0.00 0.00 0.00 0.00 0.00 0.00 0.00 0.00 0.00 0.00 0.00 0.00 0.00 0.00 0.00 0.00 0.00 0.00 0.00 0.00 0.00 0.00 0.00 0.00 0.00 0.00 0.00 0.00 0.00 0.00 0.00 0.00 0.00 0.00 0.00 0.00 0.00 0.00 0.00 0.00 0.00 0.00 0.00 0.00 0.00
0.00 0.00 0.00 0.00 0.00 0.00 0.00 0.00 0.00 0.00 0.00 0.00 0.00 0.00 0.00 0.00 0.00 0.00 0.00 0.00 0.00 0.00 0.00 0.00 0.00 0.00 0.00 0.00 0.00 0.00 0.00 0.00 0.00 0.00 0.00 0.00 0.00 0.00 0.00 0.00 0.00 0.00 0.00 0.00 0.00
0.00 0.00 0.00 0.00 0.00 0.00 0.00 0.00 0.00 0.00 0.00 0.00 0.00 0.00 0.00 0.00 0.00 0.00 0.00 0.00 0.00 0.00 0.00 0.00 0.00 0.00 0.00 0.00 0.00 0.00 0.00 0.00 0.00 0.00 0.00 0.00 0.00 0.00 0.00 0.00 0.00 0.00 0.00 0.00 0.00
0.00 0.00 0.00 0.00 0.00 0.00 0.00 0.00 0.00 0.00 0.00 0.00 0.00 0.00 0.00 0.00 0.00 0.00 0.00 0.00 0.00 0.00 0.00 0.00 0.00 0.00 0.00 0.00 0.00 0.00 0.00 0.00 0.00 0.00 0.00 0.00 0.00 0.00 0.00 0.00 0.00 0.00 0.00 0.00 0.00
0.00 0.00 0.00 0.00 0.00 0.00 0.00 0.00 0.00 0.00 0.00 0.00 0.00 0.00 0.00 0.00 0.00 0.00 0.00 0.00 0.00 0.00 0.00 0.00 0.00 0.00 0.00 0.00 0.00 0.00 0.00 0.00 0.00 0.00 0.00 0.00 0.00 0.00 0.00 0.00 0.00 0.00 0.00 0.00 0.00
0.00 0.00 0.00 0.00 0.00 0.00 0.00 0.00 0.00 0.00 0.00 0.00 0.00 0.00 0.00 0.00 0.00 0.00 0.00 0.00 0.00 0.00 0.00 0.00 0.00 0.00 0.00 0.00 0.00 0.00 0.00 0.00 0.00 0.00 0.00 0.00 0.00 0.00 0.00 0.00 0.00 0.00 0.00 0.05 0.04
0.00 0.00 0.00 0.00 0.00 0.00 0.00 0.00 0.00 0.00 0.00 0.00 0.00 0.00 0.00 0.00 0.00 0.00 0.00 0.00 0.00 0.00 0.00 0.00 0.00 0.00 0.00 0.00 0.00 0.00 0.00 0.00 0.00 0.00 0.00 0.00 0.00 0.01 0.03 0.03 0.01 0.01 0.00 0.01 0.02
0.00 0.00 0.00 0.00 0.00 0.00 0.00 0.00 0.00 0.00 0.00 0.00 0.00 0.00 0.00 0.00 0.00 0.00 0.00 0.00 0.00 0.00 0.00 0.00 0.00 0.00 0.00 0.00 0.00 0.00 0.00 0.00 0.00 0.00 0.00 0.00 0.00 0.00 0.01 0.02 0.02 0.01 0.00 0.00 0.01
0.00 0.00 0.00 0.00 0.00 0.00 0.00 0.00 0.00 0.00 0.00 0.00 0.00 0.00 0.00 0.00 0.00 0.00 0.00 0.00 0.00 0.00 0.00 0.00 0.00 0.00 0.00 0.00 0.00 0.00 0.00 0.00 0.00 0.00 0.00 0.00 0.00 0.00 0.00 0.00 0.00 0.00 0.00 0.00 0.00
0.00 0.00 0.00 0.00 0.00 0.00 0.00 0.00 0.00 0.00 0.00 0.00 0.00 0.00 0.00 0.00 0.00 0.00 0.00 0.00 0.00 0.00 0.00 0.00 0.00 0.00 0.00 0.00 0.00 0.00 0.00 0.00 0.00 0.00 0.00 0.00 0.00 0.00 0.00 0.00 0.00 0.00 0.00 0.00 0.00
0.00 0.00 0.00 0.00 0.00 0.00 0.00 0.00 0.00 0.00 0.00 0.00 0.00 0.00 0.00 0.00 0.00 0.00 0.00 0.00 0.00 0.00 0.00 0.00 0.00 0.00 0.00 0.00 0.00 0.00 0.00 0.00 0.00 0.00 0.00 0.00 0.00 0.00 0.00 0.00 0.00 0.00 0.00 0.00 0.00
0.00 0.00 0.00 0.00 0.00 0.00 0.00 0.00 0.00 0.00 0.00 0.00 0.00 0.00 0.00 0.00 0.00 0.00 0.00 0.00 0.00 0.00 0.00 0.00 0.00 0.00 0.00 0.00 0.00 0.00 0.00 0.00 0.00 0.00 0.00 0.00 0.00 0.00 0.00 0.00 0.00 0.00 0.00 0.00 0.00
0.00 0.00 0.00 0.00 0.00 0.00 0.00 0.00 0.00 0.00 0.00 0.00 0.00 0.00 0.00 0.00 0.00 0.00 0.00 0.00 0.00 0.00 0.00 0.00 0.00 0.00 0.00 0.00 0.00 0.00 0.00 0.00 0.00 0.00 0.00 0.00 0.00 0.00 0.00 0.00 0.00 0.00 0.00 0.00 0.00
0.00 0.00 0.00 0.00 0.00 0.00 0.00 0.00 0.00 0.00 0.00 0.00 0.00 0.00 0.00 0.00 0.00 0.00 0.00 0.00 0.00 0.00 0.00 0.00 0.00 0.00 0.00 0.00 0.00 0.00 0.00 0.00 0.00 0.00 0.00 0.00 0.00 0.00 0.00 0.00 0.00 0.00 0.00 0.00 0.00
0.00 0.00 0.00 0.00 0.00 0.00 0.00 0.00 0.00 0.00 0.00 0.00 0.00 0.00 0.00 0.00 0.00 0.00 0.00 0.00 0.00 0.00 0.00 0.00 0.00 0.00 0.00 0.00 0.00 0.00 0.00 0.00 0.00 0.00 0.00 0.00 0.00 0.00 0.00 0.00 0.00 0.00 0.00 0.00 0.00
0.00 0.00 0.00 0.00 0.00 0.00 0.00 0.00 0.00 0.00 0.00 0.00 0.00 0.00 0.00 0.00 0.00 0.00 0.00 0.00 0.00 0.00 0.00 0.00 0.00 0.00 0.00 0.00 0.00 0.00 0.00 0.00 0.00 0.00 0.00 0.00 0.00 0.00 0.00 0.00 0.00 0.00 0.00 0.00 0.00
0.00 0.00 0.00 0.00 0.00 0.00 0.00 0.00 0.00 0.00 0.00 0.00 0.00 0.00 0.00 0.00 0.00 0.00 0.00 0.00 0.00 0.00 0.00 0.00 0.00 0.00 0.00 0.00 0.00 0.00 0.00 0.00 0.00 0.00 0.00 0.00 0.00 0.00 0.00 0.00 0.00 0.00 0.00 0.00 0.00
0.00 0.00 0.00 0.00 0.00 0.00 0.00 0.00 0.00 0.00 0.00 0.00 0.00 0.00 0.00 0.00 0.00 0.00 0.00 0.00 0.00 0.00 0.00 0.00 0.00 0.00 0.00 0.00 0.00 0.00 0.00 0.00 0.00 0.00 0.00 0.00 0.00 0.00 0.00 0.00 0.00 0.00 0.00 0.00 0.00
0.00 0.00 0.00 0.00 0.00 0.00 0.00 0.00 0.00 0.00 0.00 0.00 0.00 0.00 0.00 0.00 0.00 0.00 0.00 0.00 0.00 0.00 0.00 0.00 0.00 0.00 0.00 0.00 0.00 0.00 0.00 0.00 0.00 0.00 0.00 0.00 0.00 0.00 0.00 0.00 0.00 0.00 0.00 0.00 0.00
0.00 0.00 0.00 0.00 0.00 0.00 0.00 0.00 0.00 0.00 0.00 0.00 0.00 0.00 0.00 0.00 0.00 0.00 0.00 0.00 0.00 0.00 0.00 0.00 0.00 0.00 0.00 0.00 0.00 0.00 0.00 0.00 0.00 0.00 0.00 0.00 0.00 0.00 0.00 0.00 0.00 0.00 0.00 0.00 0.00
0.00 0.00 0.00 0.00 0.00 0.00 0.00 0.00 0.00 0.00 0.00 0.00 0.00 0.00 0.00 0.00 0.00 0.00 0.00 0.00 0.00 0.00 0.00 0.00 0.00 0.00 0.00 0.00 0.00 0.00 0.00 0.00 0.00 0.00 0.00 0.00 0.00 0.00 0.00 0.00 0.00 0.00 0.00 0.00 0.00
0.00 0.00 0.00 0.00 0.00 0.00 0.00 0.00 0.00 0.00 0.00 0.00 0.00 0.00 0.00 0.00 0.00 0.00 0.00 0.00 0.00 0.00 0.00 0.00 0.00 0.00 0.00 0.00 0.00 0.00 0.00 0.00 0.00 0.00 0.00 0.00 0.00 0.00 0.00 0.00 0.00 0.00 0.00 0.00 0.00
0.00 0.00 0.00 0.00 0.00 0.00 0.00 0.00 0.00 0.00 0.00 0.00 0.00 0.00 0.00 0.00 0.00 0.00 0.00 0.00 0.00 0.00 0.00 0.00 0.00 0.00 0.00 0.00 0.00 0.00 0.00 0.00 0.00 0.00 0.00 0.00 0.00 0.00 0.00 0.00 0.00 0.00 0.00 0.00 0.00
0.00 0.00 0.00 0.00 0.00 0.00 0.00 0.00 0.00 0.00 0.00 0.00 0.00 0.00 0.00 0.00 0.00 0.00 0.00 0.00 0.00 0.00 0.00 0.00 0.00 0.00 0.00 0.00 0.00 0.00 0.00 0.00 0.00 0.00 0.00 0.00 0.00 0.00 0.00 0.00 0.00 0.00 0.00 0.00 0.00
MSLP
1018.43 1017.92 1017.76 1017.40 1016.81 1016.64 1015.88 1015.24 1015.29 1014.70 1014.16 1013.62 1013.04 1012.84 1012.55 1012.13 1011.27 1011.02 1009.80 1008.09 1007.92 1007.93 1007.91 1008.14 1008.27 1008.44 1008.68 1009.16 1009.48 1010.07 1010.94 1011.13 1009.98 1009.10 1007.94 1006.91 1006.58 1005.04 1004.54 1005.01 1005.18 1004.99 1005.11 1005.31 1006.02
1018.42 1018.09 1017.89 1017.25 1016.71 1016.36 1015.66 1015.09 1015.09 1014.41 1013.92 1013.38 1012.81 1012.73 1012.35 1011.93 1011.11 1009.78 1007.35 1007.62 1007.71 1007.66 1007.68 1007.90 1008.07 1008.24 1008.93 1009.18 1009.58 1010.04 1010.71 1010.02 1009.06 1008.39 1007.75 1007.21 1007.50 1006.70 1005.92 1005.89 1005.76 1005.31 1005.12 1005.81 1006.79
1019.00 1018.50 1017.75 1016.96 1016.55 1016.06 1015.44 1015.00 1014.73 1014.13 1013.64 1013.06 1012.71 1012.53 1012.17 1011.81 1010.68 1008.00 1006.86 1007.50 1007.56 1007.48 1007.69 1007.82 1008.00 1008.22 1008.68 1009.08 1009.42 1009.70 1009.71 1009.08 1007.99 1007.84 1007.88 1007.68 1007.86 1007.79 1007.36 1006.92 1006.76 1006.72 1006.47 1008.25 1008.93
1019.01 1017.91 1017.15 1016.88 1016.09 1015.89 1015.24 1014.72 1014.27 1013.81 1013.37 1012.81 1012.55 1012.25 1011.99 1011.47 1009.75 1007.48 1007.07 1007.33 1007.45 1007.53 1007.70 1007.91 1008.02 1008.30 1008.69 1008.88 1008.96 1009.30 1008.60 1008.54 1007.99 1007.68 1007.74 1008.06 1008.22 1008.67 1009.03 1009.06 1007.29 1006.35 1006.89 1008.23 1009.06
1018.56 1017.76 1017.62 1017.05 1016.43 1015.53 1014.80 1014.23 1013.71 1013.34 1013.03 1012.58 1012.33 1011.98 1011.91 1010.51 1008.34 1007.37 1007.14 1007.36 1007.46 1007.54 1007.58 1007.81 1007.99 1008.30 1008.59 1008.74 1008.92 1009.09 1008.51 1008.76 1008.09 1008.49 1008.25 1008.44 1009.46 1009.88 1009.61 1009.11 1007.56 1007.02 1008.19 1009.15 1009.74
1018.31 1018.24 1017.57 1016.51 1015.94 1014.85 1014.32 1013.67 1013.09 1012.87 1012.54 1012.21 1011.99 1011.87 1011.50 1009.41 1006.85 1007.09 1007.36 1007.57 1007.46 1007.54 1007.63 1007.76 1007.83 1007.90 1008.28 1008.41 1008.76 1008.44 1008.53 1008.72 1008.39 1008.76 1008.92 1008.91 1009.98 1009.90 1010.66 1010.05 1009.34 1008.24 1009.68 1010.38 1010.74
1018.16 1017.59 1016.72 1016.37 1015.17 1014.50 1013.76 1013.03 1012.47 1012.14 1011.84 1011.77 1011.49 1011.62 1010.52 1007.91 1006.71 1006.98 1007.29 1007.32 1007.24 1007.37 1007.38 1007.49 1007.63 1007.96 1007.94 1008.03 1008.12 1008.30 1008.51 1008.63 1009.32 1009.09 1009.12 1008.97 1010.80 1011.65 1011.64 1010.89 1010.40 1010.11 1010.32 1010.81 1011.33
1018.14 1017.56 1016.84 1015.75 1014.99 1014.01 1013.16 1012.43 1011.96 1011.44 1011.12 1011.17 1011.20 1011.33 1009.32 1006.85 1006.74 1006.83 1006.96 1006.95 1006.97 1006.99 1007.02 1006.99 1007.39 1007.91 1008.27 1008.01 1007.86 1008.12 1008.90 1009.38 1009.71 1009.58 1009.44 1009.41 1012.47 1012.71 1012.51 1012.04 1011.87 1011.94 1011.70 1012.28 1012.11
1018.15 1017.48 1016.67 1015.74 1014.93 1013.74 1012.73 1011.99 1011.48 1011.25 1010.83 1011.10 1011.37 1010.71 1008.19 1006.51 1006.64 1006.30 1006.44 1006.62 1006.53 1006.47 1006.66 1006.89 1007.41 1008.48 1008.51 1008.91 1009.23 1009.56 1009.78 1009.87 1010.00 1009.96 1009.83 1010.27 1013.03 1013.53 1013.26 1013.03 1013.11 1012.75 1012.83 1012.96 1013.43
1018.18 1017.51 1016.63 1015.71 1014.66 1013.33 1012.27 1011.47 1011.32 1011.01 1011.07 1011.26 1010.82 1010.31 1007.76 1006.91 1006.29 1006.18 1006.29 1006.51 1006.46 1006.53 1006.84 1007.33 1008.42 1008.97 1009.49 1009.43 1009.74 1009.83 1009.87 1010.33 1010.72 1011.60 1011.10 1012.40 1013.75 1014.14 1014.13 1013.96 1014.02 1013.53 1013.81 1013.77 1013.92
1017.78 1017.23 1016.35 1015.63 1014.59 1013.12 1012.36 1011.44 1011.79 1011.26 1011.17 1011.02 1010.27 1009.51 1008.11 1006.95 1006.23 1005.95 1005.93 1006.37 1006.45 1006.78 1007.40 1007.91 1008.84 1009.01 1008.72 1008.71 1008.69 1009.09 1009.47 1010.56 1011.50 1011.78 1012.45 1013.95 1014.21 1014.64 1014.96 1014.80 1014.46 1014.27 1013.94 1013.82 1014.38
1017.94 1017.39 1016.53 1015.43 1014.00 1013.29 1013.07 1013.02 1013.59 1014.35 1012.62 1010.16 1009.60 1008.94 1007.89 1007.34 1006.65 1005.78 1005.69 1006.32 1006.54 1007.13 1007.37 1007.98 1008.25 1007.78 1007.77 1007.84 1008.23 1008.77 1009.49 1010.75 1011.80 1011.96 1012.91 1014.30 1014.68 1014.77 1014.90 1015.10 1014.98 1014.82 1014.08 1013.35 1014.12
1018.01 1017.34 1016.37 1015.31 1014.06 1013.83 1014.00 1013.26 1013.75 1014.23 1013.28 1009.90 1008.77 1008.03 1007.07 1007.14 1006.46 1005.78 1005.77 1006.11 1006.56 1007.08 1007.44 1007.71 1007.33 1006.91 1007.04 1007.29 1007.81 1008.52 1009.19 1010.13 1011.45 1012.56 1013.33 1013.93 1015.03 1015.52 1015.34 1015.15 1014.92 1015.07 1015.41 1013.59 1013.75
1017.96 1017.37 1016.99 1015.41 1014.45 1014.99 1013.83 1013.46 1013.65 1013.68 1012.58 1009.51 1008.02 1006.57 1006.51 1006.38 1006.15 1005.52 1005.51 1005.97 1006.49 1006.94 1007.34 1007.39 1006.79 1006.70 1006.85 1006.99 1007.38 1008.10 1008.76 1009.62 1011.57 1012.57 1013.93 1014.45 1016.18 1016.02 1015.97 1015.76 1015.19 1015.11 1015.25 1013.65 1014.06
1017.79 1017.27 1017.06 1016.97 1016.38 1015.36 1013.87 1013.61 1012.85 1013.03 1011.29 1008.24 1006.88 1005.80 1006.15 1006.40 1006.16 1005.73 1005.45 1005.72 1006.43 1006.96 1007.43 1007.39 1006.90 1006.71 1006.69 1006.93 1007.23 1008.17 1008.81 1010.22 1011.62 1012.88 1014.19 1015.48 1016.15 1016.41 1016.29 1016.04 1015.56 1015.03 1014.49 1014.48 1014.62
1017.67 1016.99 1016.90 1016.42 1016.26 1014.56 1013.69 1013.25 1013.00 1012.53 1009.58 1007.45 1006.29 1006.06 1006.48 1006.41 1006.25 1006.00 1005.88 1006.00 1006.71 1007.23 1007.64 1007.60 1006.94 1006.72 1006.51 1006.96 1007.44 1008.22 1009.46 1011.14 1012.63 1013.81 1015.42 1016.00 1016.36 1016.86 1016.64 1016.26 1016.04 1015.60 1015.47 1015.54 1015.54
1017.38 1017.14 1016.98 1016.56 1015.34 1014.30 1013.77 1013.31 1013.05 1011.25 1008.58 1007.37 1006.58 1006.51 1006.78 1006.85 1006.74 1006.65 1006.87 1007.42 1008.00 1008.40 1008.79 1008.20 1007.57 1006.98 1006.73 1007.31 1007.76 1008.70 1010.55 1012.47 1014.16 1015.35 1016.33 1016.15 1016.50 1016.84 1016.37 1016.25 1016.12 1015.97 1015.94 1016.14 1016.63
1016.86 1016.20 1015.86 1014.92 1014.32 1014.18 1013.95 1013.69 1012.52 1009.96 1008.34 1007.01 1006.68 1006.86 1007.19 1007.07 1007.29 1007.54 1007.87 1008.69 1008.80 1009.08 1009.62 1009.41 1008.66 1008.02 1007.71 1008.00 1008.79 1009.98 1011.30 1013.04 1014.82 1016.43 1016.70 1016.54 1017.06 1016.89 1016.43 1016.00 1015.88 1016.23 1016.52 1016.94 1017.39
1016.66 1015.47 1015.06 1013.77 1013.88 1014.20 1014.22 1013.70 1011.62 1009.53 1008.02 1007.25 1006.84 1007.15 1007.53 1007.33 1007.67 1008.32 1009.14 1009.73 1009.80 1009.72 1009.93 1010.00 1009.55 1008.72 1008.44 1008.59 1009.28 1010.35 1011.80 1012.99 1014.83 1016.60 1017.18 1017.71 1017.41 1016.89 1016.63 1016.64 1016.66 1017.06 1017.39 1017.75 1017.94
1017.72 1016.85 1014.87 1013.87 1013.93 1014.18 1014.43 1013.14 1011.11 1009.26 1007.98 1007.21 1006.89 1007.31 1007.89 1007.96 1008.32 1009.05 1009.78 1010.09 1010.16 1010.24 1010.04 1010.71 1010.49 1009.77 1009.29 1009.15 1009.63 1010.31 1012.07 1013.47 1015.15 1017.05 1018.04 1018.38 1018.30 1018.21 1017.97 1017.76 1017.85 1018.02 1018.28 1018.35 1018.14
1017.90 1016.60 1014.18 1013.70 1013.70 1014.37 1014.27 1012.86 1010.90 1008.72 1007.82 1007.16 1006.98 1007.53 1008.11 1008.49 1009.05 1009.91 1010.59 1010.44 1010.44 1010.60 1010.66 1011.29 1011.47 1011.21 1010.59 1011.09 1011.57 1011.76 1012.86 1014.53 1016.03 1017.40 1018.34 1019.00 1019.14 1018.97 1018.99 1018.78 1018.96 1019.01 1019.00 1019.00 1018.94
1018.07 1016.88 1014.25 1014.02 1014.48 1015.12 1014.10 1012.65 1010.85 1008.90 1007.51 1007.04 1007.03 1007.62 1008.26 1008.84 1009.99 1010.45 1010.90 1011.05 1010.89 1011.08 1011.83 1012.48 1013.04 1013.03 1012.62 1012.16 1012.23 1012.72 1013.76 1014.94 1016.67 1018.13 1018.81 1019.22 1019.80 1019.54 1019.68 1019.70 1019.74 1019.79 1019.60 1019.39 1019.18
1018.56 1017.19 1014.47 1014.18 1015.06 1014.99 1013.86 1012.42 1010.84 1009.13 1008.00 1007.48 1007.60 1007.80 1008.45 1009.42 1010.45 1010.97 1011.21 1011.33 1011.27 1011.73 1012.49 1013.05 1014.73 1014.72 1013.90 1013.49 1013.36 1014.18 1014.91 1015.62 1016.58 1017.61 1019.09 1019.74 1020.22 1020.01 1019.98 1020.05 1020.14 1020.08 1019.89 1019.71 1019.38
1018.81 1017.89 1015.96 1015.25 1015.35 1014.87 1013.97 1012.41 1010.68 1008.93 1008.38 1008.05 1008.12 1008.18 1008.88 1010.03 1010.32 1011.23 1011.68 1011.87 1012.01 1012.58 1013.04 1013.67 1015.63 1015.93 1015.62 1015.51 1015.55 1015.95 1016.28 1016.37 1016.98 1018.12 1019.25 1019.74 1020.15 1020.41 1020.47 1020.42 1020.31 1020.27 1020.12 1019.88 1019.49
1018.91 1018.22 1017.16 1016.17 1015.47 1014.86 1013.90 1012.61 1011.10 1009.75 1008.82 1008.51 1008.64 1008.85 1009.26 1010.80 1011.16 1011.83 1012.10 1012.35 1012.64 1013.19 1013.96 1014.79 1016.59 1016.69 1016.60 1016.48 1016.45 1017.22 1017.44 1017.29 1017.87 1018.73 1019.31 1019.88 1020.12 1020.31 1020.26 1020.24 1020.22 1020.18 1019.99 1019.92 1019.83
1019.04 1018.63 1017.41 1016.50 1015.50 1014.86 1013.89 1012.45 1011.39 1010.37 1009.84 1009.27 1009.38 1009.66 1009.73 1010.68 1011.08 1012.02 1012.55 1013.01 1013.43 1014.01 1015.02 1016.14 1017.58 1017.62 1017.94 1017.51 1017.30 1017.84 1018.28 1018.54 1019.04 1019.59 1019.99 1020.20 1020.27 1020.20 1020.06 1020.07 1020.23 1020.34 1020.26 1020.33 1020.24
1018.97 1018.43 1018.02 1016.79 1015.72 1014.83 1013.71 1012.55 1011.47 1010.72 1010.32 1009.96 1010.06 1010.04 1010.80 1011.33 1011.49 1012.32 1012.74 1013.43 1013.96 1014.71 1016.17 1017.06 1018.26 1018.79 1018.83 1018.26 1018.03 1018.51 1019.11 1019.35 1019.77 1019.97 1020.17 1020.40 1020.40 1020.30 1020.38 1020.45 1020.44 1020.44 1020.68 1020.74 1020.56
Thickness
5708 5717 5721 5726 5732 5735 5745 5754 5753 5760 5766 5772 5777 5778 5781 5786 5793 5795 5799 5814 5817 5817 5816 5811 5807 5802 5797 5788 5787 5776 5743 5735 5756 5762 5778 5795 5789 5814 5825 5810 5814 5819 5819 5823 5820
5705 5713 5716 5724 5730 5736 5745 5753 5753 5761 5767 5773 5778 5778 5782 5786 5793 5799 5824 5820 5819 5820 5815 5806 5800 5799 5782 5783 5779 5763 5738 5754 5771 5779 5783 5787 5783 5788 5796 5800 5805 5814 5825 5822 5813
5695 5703 5712 5723 5728 5735 5744 5750 5754 5761 5768 5774 5778 5779 5783 5786 5795 5810 5828 5821 5821 5821 5816 5811 5804 5797 5783 5783 5777 5767 5755 5772 5785 5786 5787 5785 5782 5786 5782 5787 5796 5797 5811 5796 5788
5689 5703 5713 5720 5729 5733 5743 5750 5756 5762 5769 5775 5777 5780 5784 5788 5775 5818 5826 5823 5821 5820 5813 5804 5799 5788 5777 5775 5781 5767 5779 5780 5788 5790 5789 5782 5783 5774 5773 5774 5801 5810 5809 5795 5787
5689 5699 5705 5713 5721 5735 5743 5752 5759 5764 5770 5775 5778 5781 5783 5789 5797 5822 5825 5823 5820 5817 5808 5800 5791 5784 5776 5777 5776 5769 5781 5775 5787 5780 5784 5785 5768 5766 5769 5784 5803 5808 5796 5786 5779
5686 5690 5701 5715 5723 5736 5745 5753 5761 5767 5773 5777 5779 5781 5785 5781 5825 5824 5822 5820 5818 5814 5806 5803 5796 5794 5782 5777 5772 5780 5781 5774 5782 5778 5780 5775 5766 5770 5766 5779 5785 5795 5780 5773 5768
5684 5692 5703 5713 5727 5737 5746 5756 5765 5770 5777 5778 5782 5782 5785 5794 5826 5824 5822 5819 5820 5815 5806 5807 5805 5795 5794 5782 5789 5783 5774 5777 5769 5776 5777 5784 5755 5748 5760 5770 5771 5776 5774 5768 5761
5681 5689 5699 5714 5726 5738 5748 5759 5766 5774 5780 5781 5783 5781 5782 5822 5824 5822 5822 5819 5821 5820 5816 5816 5810 5797 5789 5793 5784 5775 5764 5748 5769 5770 5778 5775 5729 5746 5754 5757 5754 5756 5759 5754 5754
5677 5685 5698 5710 5723 5737 5749 5760 5768 5773 5779 5780 5780 5782 5786 5824 5814 5825 5824 5815 5819 5822 5818 5817 5805 5782 5780 5762 5749 5750 5743 5752 5761 5767 5772 5766 5732 5739 5746 5747 5743 5746 5744 5742 5737
5673 5680 5695 5708 5722 5737 5751 5762 5767 5774 5775 5776 5781 5776 5801 5799 5815 5822 5824 5818 5812 5812 5803 5795 5773 5762 5752 5747 5728 5746 5748 5744 5739 5748 5755 5737 5725 5728 5734 5736 5735 5740 5735 5732 5728
5672 5679 5694 5706 5721 5737 5749 5760 5757 5762 5767 5767 5773 5776 5790 5808 5820 5816 5822 5811 5809 5797 5775 5781 5758 5751 5763 5763 5768 5764 5749 5739 5744 5751 5738 5721 5723 5724 5726 5727 5730 5733 5733 5733 5725
5668 5677 5690 5704 5722 5732 5739 5741 5738 5735 5739 5773 5775 5781 5794 5802 5792 5808 5821 5796 5791 5772 5779 5766 5757 5775 5778 5772 5769 5760 5745 5739 5736 5748 5736 5723 5718 5727 5728 5727 5728 5729 5732 5738 5730
5666 5674 5686 5701 5717 5724 5727 5738 5738 5737 5732 5762 5779 5783 5795 5798 5792 5797 5809 5796 5785 5774 5770 5761 5775 5787 5784 5775 5766 5759 5747 5744 5733 5737 5735 5730 5713 5710 5723 5728 5731 5729 5725 5738 5734
5663 5671 5677 5696 5710 5711 5725 5734 5739 5739 5719 5755 5773 5789 5796 5800 5785 5811 5812 5799 5784 5773 5768 5768 5783 5783 5776 5772 5768 5754 5766 5760 5735 5725 5700 5726 5681 5703 5709 5714 5723 5723 5722 5736 5732
5660 5668 5672 5676 5689 5704 5723 5729 5741 5738 5705 5767 5775 5807 5796 5784 5790 5793 5813 5799 5776 5775 5773 5769 5777 5776 5770 5773 5776 5762 5768 5751 5740 5723 5713 5703 5684 5693 5703 5705 5710 5718 5724 5725 5723
5658 5667 5671 5678 5689 5708 5721 5731 5734 5711 5710 5757 5777 5774 5772 5780 5783 5792 5793 5799 5791 5776 5771 5769 5785 5783 5782 5779 5777 5775 5758 5735 5719 5710 5686 5695 5686 5682 5689 5700 5704 5713 5714 5711 5708
5656 5662 5668 5677 5694 5706 5718 5723 5699 5696 5752 5750 5758 5766 5763 5762 5769 5775 5771 5759 5750 5744 5740 5757 5766 5778 5786 5768 5772 5758 5730 5692 5695 5676 5677 5696 5683 5679 5697 5702 5702 5702 5701 5698 5691
5657 5667 5674 5689 5700 5705 5710 5702 5694 5728 5736 5763 5761 5758 5750 5761 5762 5762 5757 5739 5758 5750 5729 5727 5726 5760 5774 5769 5755 5743 5729 5694 5693 5673 5677 5690 5672 5677 5698 5700 5700 5695 5688 5682 5673
5655 5670 5679 5693 5699 5702 5698 5683 5699 5728 5748 5749 5757 5745 5745 5760 5758 5752 5741 5737 5747 5750 5735 5729 5736 5764 5768 5766 5763 5746 5719 5727 5688 5680 5672 5662 5681 5691 5695 5689 5685 5677 5672 5663 5659
5639 5651 5674 5687 5693 5695 5684 5684 5708 5734 5748 5753 5742 5747 5733 5747 5746 5740 5736 5746 5745 5748 5755 5741 5727 5754 5758 5766 5760 5751 5739 5711 5688 5675 5671 5659 5661 5653 5668 5671 5667 5661 5653 5650 5649
5635 5651 5678 5685 5688 5679 5675 5685 5711 5742 5749 5749 5747 5741 5740 5741 5739 5730 5727 5745 5748 5748 5746 5740 5730 5737 5746 5732 5726 5724 5718 5698 5686 5671 5656 5645 5651 5665 5655 5657 5648 5644 5643 5639 5634
5626 5641 5673 5679 5667 5655 5671 5692 5717 5734 5753 5755 5756 5748 5741 5741 5728 5725 5725 5731 5745 5749 5735 5731 5711 5708 5724 5737 5737 5733 5722 5701 5675 5678 5651 5648 5642 5655 5650 5645 5641 5637 5637 5635 5630
5619 5632 5667 5673 5654 5661 5676 5696 5715 5729 5741 5746 5745 5749 5747 5734 5719 5727 5730 5742 5742 5739 5733 5731 5691 5682 5701 5715 5722 5707 5708 5694 5680 5666 5656 5647 5639 5652 5647 5642 5639 5636 5633 5628 5625
5615 5629 5648 5658 5655 5667 5676 5692 5705 5732 5737 5741 5743 5748 5739 5724 5728 5722 5725 5733 5738 5731 5728 5723 5686 5683 5672 5693 5698 5691 5689 5692 5684 5663 5651 5647 5644 5642 5639 5637 5635 5631 5626 5623 5621
5606 5625 5637 5644 5654 5662 5677 5687 5697 5708 5727 5733 5738 5738 5735 5719 5720 5716 5723 5727 5732 5726 5720 5712 5686 5693 5689 5695 5692 5682 5678 5677 5671 5666 5659 5648 5643 5641 5640 5637 5634 5630 5626 5620 5612
5606 5618 5629 5639 5651 5661 5670 5686 5695 5706 5714 5725 5726 5730 5735 5723 5725 5712 5718 5719 5719 5721 5709 5695 5675 5688 5677 5684 5684 5673 5672 5670 5664 5656 5646 5641 5637 5641 5640 5637 5629 5620 5615 5607 5601
5598 5611 5621 5636 5648 5659 5668 5683 5697 5706 5712 5720 5722 5721 5718 5721 5728 5724 5720 5713 5716 5714 5695 5687 5673 5666 5672 5673 5678 5658 5659 5657 5653 5649 5646 5638 5637 5639 5633 5625 5619 5614 5603 5592 5586